User: anonymous   Login
Location: Silverdale
(47.6506°N, 122.6941°W)
Time: 12:53:45
(UTC+00:00)
Language:

Vanguard 3 - Orbit

View from above orbital plane
View from above orbital plane
View from above satellite
View from above satellite

Ground track
Ground track

The orbit data is extracted from the following two-line orbital elements,

1    20U 59007A   22278.11017465  .00000786  00000-0  32690-3 0  9993
2    20  33.3429  69.6671 1664049  42.4473 329.3470 11.56277525327817
Epoch (UTC): 05 October 2022 02:38:39
Eccentricity: 0.1664049
inclination: 33.3429°
perigee height: 508 km
apogee height: 3257 km
right ascension of ascending node: 69.6671°
argument of perigee: 42.4473°
revolutions per day: 11.56277525
mean anomaly at epoch: 329.3470°
orbit number at epoch: 32781

The dashed part of the orbit path shows where the satellite is in the earth's shadow,  

DLR